Flag Weather past 2 weeks in Richmond, British Columbia, Canada

Now
45 °F

Overcast.


Feels Like: 35 °F
Forecast: 31 / 54 °F
Wind: 28 mph from West

Location: Vancouver International Air-Port

Current Time: Nov 28, 2014 at 7:07:01 AM

Latest Report: Nov 28, 2014 at 6:00 AM


Visibility: 15 mi

Pressure: 29.50 "Hg

Humidity: 76%

Dew point: 37 °F

Location of RichmondLocation

Historic Weather in Richmond — Graph

°F

Richmond temperature yesterday

Maximum temperature yesterday: 57 °F (at 2:00 PM)
Minimum temperature yesterday: 52 °F (at 6:00 AM)
Average temperature yesterday: 54 °F

Past Weeks' High & Low Weather Summary

 TemperatureHumidityPressure
High57 °F (Nov 27, 2:00 PM)100% (Nov 18, 3:00 AM)30.57 "Hg (Nov 18, 3:00 AM)
Low23 °F (Nov 14, 6:00 AM)31% (Nov 14, 12:00 PM)29.26 "Hg (Nov 21, 7:00 PM)
Average42 °F86%30.05 "Hg
* Reported Nov 13 6:00 AM — Nov 28 6:00 AM, Richmond, Weather by CustomWeather, © 2014

Note: Actual official high and low records may vary slightly from our data, if they occured in-between our weather recording intervals... More about our weather records

Advertising

Richmond weather history for previous 24 hours

 ConditionsComfort  
Time TempWeatherWind HumidityBarometerVisibility
6:00 AM
Nov 28
45 °FOvercast.28 mph76%29.50 "Hg15 mi
5:00 AM45 °FLight rain. Mostly cloudy.24 mph87%29.52 "Hg12 mi
4:00 AM45 °FLight rain. Overcast.28 mph87%29.51 "Hg12 mi
3:00 AM45 °FLight rain. Low clouds.26 mph93%29.52 "Hg10 mi
2:50 AM45 °FLight rain. Mostly cloudy.31 mph93%29.52 "Hg10 mi
2:00 AM46 °FLight rain. Low clouds.16 mph100%29.51 "Hg12 mi
1:00 AM55 °FOvercast.16 mph82%29.49 "Hg15 mi
12:00 AM54 °FOvercast.20 mph88%29.51 "Hg15 mi
11:00 PM
Nov 27
54 °FMostly cloudy.17 mph88%29.54 "Hg15 mi
10:00 PM55 °FMostly cloudy.15 mph82%29.55 "Hg15 mi
9:00 PM54 °FMostly cloudy.15 mph88%29.56 "Hg15 mi
8:00 PM54 °FOvercast.18 mph88%29.58 "Hg15 mi
7:00 PM55 °FMostly cloudy.22 mph82%29.59 "Hg15 mi
6:00 PM55 °FOvercast.20 mph82%29.59 "Hg15 mi
5:00 PM55 °FPartly cloudy.18 mph82%29.62 "Hg15 mi
4:00 PM55 °FLight rain. Broken clouds.14 mph82%29.63 "Hg15 mi
3:00 PM57 °FPartly sunny.16 mph82%29.63 "Hg15 mi
2:00 PM57 °FCloudy.18 mph82%29.65 "Hg15 mi
1:00 PM55 °FMostly cloudy.17 mph88%29.66 "Hg15 mi
12:00 PM55 °FBroken clouds.15 mph88%29.68 "Hg15 mi
11:00 AM55 °FBroken clouds.16 mph88%29.72 "Hg15 mi
10:00 AM54 °FMostly cloudy.22 mph94%29.72 "Hg15 mi
9:00 AM52 °FPartly sunny.18 mph94%29.72 "Hg15 mi
8:00 AM52 °FLight rain. Cloudy.16 mph94%29.73 "Hg15 mi
7:47 AM52 °FLight rain. Mostly cloudy.20 mph94%29.73 "Hg12 mi
7:00 AM52 °FLight rain. Mostly cloudy.16 mph94%29.72 "Hg15 mi
Weather by CustomWeather, © 2014

See weather overviewHow to use our weather pages